Lexington Weather

Lexington, Massachusetts, USA

44°F
4/22/2024 8:56am 
  • Lexington Conditions: Clear
  • Temperature: 43.5°F / 6.4°CWarmer 3.4°F than last hour.
  • Dew Point: 27.1°FDecreased 1.5°Fsince last hour.
  • Relative Humidity: 52%Decreased 11.0% since last hour.
  • Wind: Calm, 10-min avg: Calm, gust: None
  • Barometer: 29.96 in Steady
  • Visibility: 10 miles
  • Rain Today: 0.00 in
  •   

Regional Weather Roundup
for Boston, MA

        
000
ASUS41 KBOX 190110
RWRBOX

REGIONAL WEATHER ROUNDUP
NATIONAL WEATHER SERVICE BOSTON/NORTON MA
900 PM EDT THU APR 18 2024

NOTE:  "FAIR" INDICATES FEW OR NO CLOUDS BELOW 12,000 FEET WITH NO 
SIGNIFICANT WEATHER AND/OR OBSTRUCTIONS TO VISIBILITY.

MAZALL-190200-
EASTERN MASSACHUSETTS
  
CITY           SKY/WX    TMP DP  RH WIND       PRES   REMARKS
BOSTON         MOCLDY    44  41  89 N6        30.20S                  
BEVERLY        CLOUDY    43  40  89 VRB3      30.18F                  
LAWRENCE       LGT RAIN  43  41  93 NE5       30.21S                  
BEDFORD        LGT RAIN  43  41  93 E6        30.18R                  
NORWOOD        MOCLDY    45  39  79 CALM      30.20R                  
MARSHFIELD     MOCLDY    45  41  87 NE9       30.16F                  
PLYMOUTH       MOCLDY    44  40  85 E8        30.15F                  
TAUNTON        CLOUDY    45  41  86 N3        30.17F                  
NEW BEDFORD    MOCLDY    44  42  93 NE7       30.15F                  
$$

MAZALL-190200-
CAPE COD AND THE ISLANDS
  
CITY           SKY/WX    TMP DP  RH WIND       PRES   REMARKS
FALMOUTH       CLOUDY    45  41  87 NE6       30.17S                  
HYANNIS        CLOUDY    44  37  76 E5        30.17R                  
CHATHAM        CLOUDY    45  39  79 NE12      30.19R                  
PROVINCETOWN   CLOUDY    44  41  89 E9        30.20S                  
NANTUCKET      CLOUDY    44  41  89 NE14      30.17R                  
MARTHAS VNYRD  LGT RAIN  45  41  86 E9        30.16S                  
$$
 
MAZALL-190200-
CENTRAL AND WESTERN MASSACHUSETTS
  
CITY           SKY/WX    TMP DP  RH WIND       PRES   REMARKS
WORCESTER      CLOUDY    41  37  86 N3        30.18R                  
FITCHBURG      CLOUDY    44  40  85 N5        30.21R                  
ORANGE         CLOUDY    44  38  79 CALM      30.20R                  
SPRINGFIELD    CLOUDY    44  38  79 NE6       30.17S                  
WESTFIELD      CLOUDY    45  37  73 NE6       30.20R                  
NORTH ADAMS    CLOUDY    46  36  68 E6        30.17R                  
PITTSFIELD     CLOUDY    42  33  70 VRB3      30.15R                  
$$
 
RIZALL-190200-
RHODE ISLAND
  
CITY           SKY/WX    TMP DP  RH WIND       PRES   REMARKS
PROVIDENCE     MOCLDY    42  41  96 NE8       30.18R                  
NEWPORT        CLOUDY    43  41  93 N7        30.17S                  
BLOCK ISLAND   CLOUDY    43  41  93 NE9       30.16R                  
SMITHFIELD     PTCLDY    40  40 100 N5        30.19R                  
WESTERLY       CLOUDY    44  41  89 N6        30.17R                  
$$
 
CTZALL-190200-
CONNECTICUT
  
CITY           SKY/WX    TMP DP  RH WIND       PRES   REMARKS
BRADLEY INTL   CLOUDY    47  39  74 N5        30.19R                  
HARTFORD       CLOUDY    46  40  79 N5        30.19R                  
PLAINVILLE     CLOUDY    45  41  86 N3        30.19S                  
BRIDGEPORT     CLOUDY    47  39  74 N8        30.19R                  
DANBURY        CLOUDY    45  38  76 E6        30.17F                  
GROTON         CLOUDY    45  43  93 N7        30.17R                  
NEW HAVEN      CLOUDY    48  42  80 N8        30.19R                  
CHESTER        CLOUDY    45  43  93 VRB3      30.18R                  
MERIDEN        CLOUDY    46  38  73 CALM      30.19R                  
WILLIMANTIC    CLOUDY    43  39  86 N6        30.19R                  
OXFORD         CLOUDY    43  37  81 NE7       30.18S                  
$$

MEZ002-015-021-024-NHZ003-005-008-011-012-014-VTZ005-008-190200-
NORTHERN NEW ENGLAND
  
CITY           SKY/WX    TMP DP  RH WIND       PRES   REMARKS
PORTLAND ME    MOCLDY    45  38  76 S3        30.20F                  
BANGOR ME      PTCLDY    47  33  58 S6        30.19R                  
CONCORD NH     CLOUDY    43  41  93 NW3       30.22R                  
MANCHESTER NH  CLOUDY    45  41  86 NW5       30.20R                  
NASHUA NH      CLOUDY    44  44 100 W5        30.22R                  
PORTSMOUTH NH  LGT RAIN  45  41  87 CALM      30.20R                  
JAFFREY NH     CLOUDY    43  38  82 CALM      30.19R                  
KEENE NH       CLOUDY    43  42  97 CALM      30.20R                  
BURLINGTON VT  LGT RAIN  45  41  86 S6        30.15S                  
MT. WASHINGTON FOG       30  30 100 W8          N/A  VSB 1/16WCI  23  
$$

NYZ052-076-190200-
EASTERN NEW YORK
  
CITY           SKY/WX    TMP DP  RH WIND       PRES   REMARKS
ALBANY         CLOUDY    47  37  68 S6        30.18S                  
NEW YORK CITY  CLOUDY    46  36  68 E12       30.16F                  
$$
 
ANZALL-190200-
MARINE OBSERVATIONS
  
STATION/POSITION TIME  TEMP    WIND        PRES    VSBY  WAVE
                       AIR SEA DIR/SP/G                  HT/PER
                 (UTC) (F)     (DEG/KT/KT) (MB)    (MI)  (FT/S)
BOSTON BUOY      0050   44      60/ 10/ 12 1021.3F         2/12
BUZZARDS BAY     0000   45      30/ 16/ 17 1021.7R
NANTUCKET SOUND  0050   46 48   60/ 14/ 16 1021.2R         2/ 3
MASS BAY-STELLWA 2304   44 45   10/  6/  8 1022.6F  1 7/8  2/ 4
ISLE OF SHOALS   0000   44      30/  3/  4 1022.5R
S OF BLOCK IS    0056      44                N/A           6/ 7
$$

......................KEY.........................
  SKY/WX - SKY CONDITION/PRESENT WEATHER
  TMP    - TEMPERATURE IN FAHRENHEIT
  DWPT   - DEWPOINT IN FAHRENHEIT
  RH     - RELATIVE HUMIDITY IN PERCENT
  WIND   - DIRECTION AND SPEED IN MPH
  PRES   - MEAN SEA LEVEL PRESSURE IN INCHES OF HG
  WCI    - WIND CHILL INDEX
  VSB    - VISIBILITY IN MILES
  HX     - HEAT INDEX
  TC     - TEMPERATURE IN CELSIUS
  VRB    - VARIABLE WIND DIRECTION
  N/A    - NOT AVAILABLE
  
      

Other recent Regional Weather Roundups

Mon Apr 22, 8:10am EDT

Mon Apr 22, 7:10am EDT

Mon Apr 22, 6:10am EDT

Mon Apr 22, 5:10am EDT

Mon Apr 22, 4:10am EDT

Mon Apr 22, 3:10am EDT

Mon Apr 22, 2:10am EDT

Mon Apr 22, 1:10am EDT

Mon Apr 22, 12:10am EDT

Sun Apr 21, 11:10pm EDT

Sun Apr 21, 10:10pm EDT

Sun Apr 21, 9:10pm EDT

Sun Apr 21, 8:10pm EDT

Sun Apr 21, 7:10pm EDT

Sun Apr 21, 6:10pm EDT

Sun Apr 21, 5:10pm EDT

Sun Apr 21, 4:10pm EDT

Sun Apr 21, 3:10pm EDT

Sun Apr 21, 2:10pm EDT

Sun Apr 21, 1:10pm EDT

Sun Apr 21, 12:10pm EDT

Sun Apr 21, 11:10am EDT

Sun Apr 21, 10:10am EDT

Sun Apr 21, 9:10am EDT

Sun Apr 21, 8:10am EDT

Sun Apr 21, 7:10am EDT

Sun Apr 21, 6:10am EDT

Sun Apr 21, 5:10am EDT

Sun Apr 21, 4:10am EDT

Sun Apr 21, 3:10am EDT

Sun Apr 21, 2:10am EDT

Sun Apr 21, 1:10am EDT

Sun Apr 21, 12:10am EDT

Sat Apr 20, 11:10pm EDT

Sat Apr 20, 10:10pm EDT

Sat Apr 20, 9:10pm EDT

Sat Apr 20, 8:10pm EDT

Sat Apr 20, 7:10pm EDT

Sat Apr 20, 6:10pm EDT

Sat Apr 20, 5:10pm EDT

Sat Apr 20, 4:10pm EDT

Sat Apr 20, 3:10pm EDT

Sat Apr 20, 2:10pm EDT

Sat Apr 20, 1:10pm EDT

Sat Apr 20, 12:10pm EDT

Sat Apr 20, 11:10am EDT

Sat Apr 20, 10:10am EDT

Sat Apr 20, 9:10am EDT

Sat Apr 20, 8:10am EDT

Sat Apr 20, 7:10am EDT

Sat Apr 20, 6:10am EDT

Sat Apr 20, 5:10am EDT

Sat Apr 20, 4:10am EDT

Sat Apr 20, 3:10am EDT

Sat Apr 20, 2:10am EDT

Sat Apr 20, 1:10am EDT

Sat Apr 20, 12:10am EDT

Fri Apr 19, 11:10pm EDT

Fri Apr 19, 10:10pm EDT

Fri Apr 19, 9:10pm EDT

Fri Apr 19, 8:10pm EDT

Fri Apr 19, 7:10pm EDT

Fri Apr 19, 6:10pm EDT

Fri Apr 19, 5:10pm EDT

Fri Apr 19, 4:10pm EDT

Fri Apr 19, 3:10pm EDT

Fri Apr 19, 2:10pm EDT

Fri Apr 19, 1:10pm EDT

Fri Apr 19, 12:10pm EDT

Fri Apr 19, 11:10am EDT

Fri Apr 19, 10:10am EDT

Fri Apr 19, 9:10am EDT

Fri Apr 19, 8:10am EDT

Fri Apr 19, 7:10am EDT

Fri Apr 19, 6:10am EDT

Fri Apr 19, 5:10am EDT

Fri Apr 19, 4:10am EDT

Fri Apr 19, 3:10am EDT

Fri Apr 19, 2:10am EDT

Fri Apr 19, 1:10am EDT

Fri Apr 19, 12:10am EDT

Thu Apr 18, 11:10pm EDT

Thu Apr 18, 10:10pm EDT

Thu Apr 18, 8:10pm EDT

Thu Apr 18, 7:10pm EDT

Thu Apr 18, 6:10pm EDT

Thu Apr 18, 5:10pm EDT

Thu Apr 18, 4:10pm EDT

Thu Apr 18, 3:10pm EDT

Thu Apr 18, 2:10pm EDT

Thu Apr 18, 1:10pm EDT

Thu Apr 18, 12:10pm EDT

Thu Apr 18, 11:10am EDT

Thu Apr 18, 10:10am EDT

Thu Apr 18, 9:10am EDT

Thu Apr 18, 8:10am EDT

Thu Apr 18, 7:10am EDT

Thu Apr 18, 6:10am EDT

Thu Apr 18, 5:10am EDT

Thu Apr 18, 4:10am EDT

Thu Apr 18, 3:10am EDT

Thu Apr 18, 2:10am EDT

Thu Apr 18, 1:10am EDT

Thu Apr 18, 12:10am EDT

Wed Apr 17, 11:10pm EDT

Wed Apr 17, 10:10pm EDT

Wed Apr 17, 9:10pm EDT

Wed Apr 17, 8:10pm EDT

Wed Apr 17, 7:10pm EDT

Wed Apr 17, 6:10pm EDT

Wed Apr 17, 5:10pm EDT

Wed Apr 17, 4:10pm EDT

Wed Apr 17, 3:10pm EDT

Wed Apr 17, 2:10pm EDT

Wed Apr 17, 1:10pm EDT

Wed Apr 17, 12:10pm EDT

Wed Apr 17, 11:10am EDT

Wed Apr 17, 10:10am EDT

Wed Apr 17, 9:10am EDT

Wed Apr 17, 8:10am EDT

Wed Apr 17, 7:10am EDT

Wed Apr 17, 6:10am EDT

Wed Apr 17, 5:10am EDT

Wed Apr 17, 4:10am EDT

Wed Apr 17, 3:10am EDT

Wed Apr 17, 2:10am EDT

Wed Apr 17, 1:10am EDT

Wed Apr 17, 12:10am EDT

Tue Apr 16, 11:10pm EDT

Tue Apr 16, 10:10pm EDT

Tue Apr 16, 9:10pm EDT

Tue Apr 16, 8:10pm EDT

Tue Apr 16, 7:10pm EDT

Tue Apr 16, 6:10pm EDT

Tue Apr 16, 5:10pm EDT

Tue Apr 16, 4:10pm EDT

Tue Apr 16, 3:10pm EDT

Tue Apr 16, 2:10pm EDT

Tue Apr 16, 1:10pm EDT

Tue Apr 16, 12:10pm EDT

Tue Apr 16, 11:10am EDT

Tue Apr 16, 10:10am EDT

Tue Apr 16, 9:10am EDT

Tue Apr 16, 8:10am EDT

Tue Apr 16, 7:10am EDT

Tue Apr 16, 6:10am EDT

Tue Apr 16, 5:10am EDT

Tue Apr 16, 4:10am EDT

Tue Apr 16, 3:10am EDT

Tue Apr 16, 2:10am EDT

Tue Apr 16, 1:10am EDT

Tue Apr 16, 12:10am EDT

Mon Apr 15, 11:10pm EDT

Mon Apr 15, 10:10pm EDT

Mon Apr 15, 9:10pm EDT

Mon Apr 15, 8:10pm EDT

Mon Apr 15, 7:10pm EDT

Mon Apr 15, 6:10pm EDT

Mon Apr 15, 5:10pm EDT

Mon Apr 15, 4:10pm EDT

Mon Apr 15, 3:10pm EDT

Mon Apr 15, 2:10pm EDT

Mon Apr 15, 1:10pm EDT

Mon Apr 15, 12:10pm EDT

Mon Apr 15, 11:10am EDT

Mon Apr 15, 10:10am EDT

Mon Apr 15, 9:10am EDT